[[{"header":{"parameterUnit":"m.s-1","parameterCategory":1,"la1":30.2991,"la2":30.254,"lo1":-89.0895,"lo2":-89.0444,"dy":0.0017,"dx":0.0017,"nx":28,"ny":28,"refTime":"2023-08-09T09:00:00:Z","depth":0,"parameterNumber":2,"parameterNumberName":"U-component_of_WINDS"},"data":[0,0,0,0,0,0,0,0,0,0,0,0,0,0,0,0,0,0,0,0,0,0,0,0,0,0,0,0,0,0,0,0,0,0,0,0,0,0,0,0,0,0,0,0,0,0,0,0,0,0,0,0,0,0,0,0,0,0,3.4146,3.4146,0,3.4108,3.4107,3.4107,3.4061,3.406,3.4059,3.4059,3.402,3.402,3.4019,0,0,0,0,0,0,0,0,0,0,0,0,0,3.4182,3.4182,3.4146,3.4146,3.4145,3.4108,3.4107,3.4107,3.4061,3.406,3.4059,3.4058,3.402,3.402,3.4019,0,0,0,0,0,0,0,0,0,0,0,0,0,3.4158,3.4182,3.4146,3.4118,3.4115,3.4108,3.4107,3.4107,3.4061,3.406,3.4059,3.4058,3.402,3.402,3.4019,3.4037,0,0,3.4017,3.4017,0,0,0,0,0,0,0,0,3.4159,3.4156,3.4123,3.412,3.4117,3.4088,3.4106,3.4083,3.4061,3.4082,3.4059,3.4058,3.4044,3.4041,3.4036,3.4035,3.4033,3.4017,3.4017,3.4017,3.4017,0,0,0,0,0,0,0,3.4161,3.4158,3.4131,3.4122,3.4119,3.4108,3.4103,3.4101,3.4069,3.408,3.4076,3.4072,3.4042,3.4037,3.4035,3.4033,3.4017,3.4017,3.4017,3.4016,3.4047,3.4048,0,0,0,0,0,0,3.4167,3.416,3.4132,3.413,3.4136,3.4108,3.4103,3.4098,3.4069,3.4063,3.4073,3.407,3.4038,3.4036,3.4033,3.4053,3.4017,3.4016,3.4016,3.4046,3.4047,3.4049,0,0,0,0,0,0,3.4168,3.4165,3.4134,3.4144,3.4139,3.4109,3.4104,3.4098,3.4093,3.4064,3.4058,3.4074,3.4037,3.4034,3.4037,3.4051,3.4016,3.4016,3.4045,3.4046,3.4048,3.4093,0,0,0,0,0,0,3.4169,3.4165,3.4171,3.4144,3.4139,3.4137,3.4105,3.4098,3.4092,3.4088,3.4063,3.4058,3.4036,3.4038,3.4036,3.405,3.4015,3.4043,3.4045,3.4047,3.409,3.4096,3.4102,0,0,0,0,0,3.417,3.4185,3.4172,3.4168,3.4145,3.4138,3.4135,3.4109,3.4093,3.4099,3.4081,3.4059,3.405,3.4039,3.4036,3.405,3.4042,3.4045,3.4047,3.4088,3.4095,3.4101,0,0,0,0,0,0,3.4214,3.4181,3.4166,3.4172,3.4158,3.4131,3.4137,3.4118,3.4108,3.4105,3.4074,3.4069,3.4076,3.4063,3.4051,3.4067,3.4043,3.4045,3.4075,3.4081,3.4087,3.409,3.4015,0,0,0,0,0,3.4224,3.4221,3.4192,3.4201,3.4195,3.4168,3.4163,3.4145,3.413,3.4124,3.4106,3.4092,3.4087,3.4083,3.4076,3.4089,3.4084,3.4097,3.4103,3.4108,3.411,3.4118,3.4124,3.4057,3.4057,3.4057,0,0,3.4245,3.4227,3.4227,3.4209,3.4196,3.4195,3.4163,3.4162,3.416,3.4124,3.4125,3.4112,3.4095,3.4103,3.4106,3.4093,3.4128,3.4111,3.4115,3.4115,3.4121,3.4127,3.4133,3.4059,3.4059,3.4058,0,0,3.4283,3.4268,3.4274,3.4263,3.4244,3.4227,3.4228,3.4204,3.4194,3.4195,3.4168,3.4167,3.4157,3.4147,3.414,3.4177,3.4157,3.4176,3.4205,3.4213,3.4218,3.4223,3.4237,3.4242,3.4179,3.4179,3.4179,0,3.4311,3.4307,3.428,3.4281,3.4275,3.4243,3.425,3.424,3.422,3.4217,3.4203,3.4192,3.4178,3.4184,3.4194,3.4189,3.4191,3.4178,3.4219,3.4224,3.4228,3.4241,3.4246,3.4181,3.4181,3.4181,3.418,0,3.4344,3.4341,3.4349,3.4331,3.4326,3.433,3.4305,3.4303,3.4286,3.427,3.4273,3.4256,3.4246,3.4246,3.4229,3.4251,3.4243,3.4225,3.42,3.4237,3.4249,3.4254,3.4185,3.4184,3.4183,3.4182,0,0,3.4405,3.4375,3.4378,3.4371,3.4349,3.4347,3.4351,3.4342,3.4341,3.433,3.4333,3.4327,3.431,3.4303,3.4285,3.4292,3.4324,3.4273,3.4272,3.4284,3.4349,3.4363,3.4369,3.4311,3.4312,3.4312,3.4351,0,3.4439,3.4443,3.442,3.4431,3.4429,3.44,3.4403,3.4391,3.4377,3.4375,3.4359,3.4356,3.4334,3.433,3.4335,3.4319,3.4337,3.4316,3.4314,3.4314,3.4319,3.4375,3.439,3.4426,3.4355,3.4356,3.4356,0,3.4479,3.447,3.4481,3.4461,3.446,3.4463,3.4454,3.4451,3.4438,3.4428,3.4421,3.4401,3.4404,3.4381,3.4386,3.4373,3.4371,3.4363,3.4364,3.4363,3.4338,3.4376,3.4437,3.4443,3.4363,3.4363,3.4362,0,3.4524,3.4515,3.4521,3.4515,3.4492,3.4496,3.4486,3.4472,3.4469,3.4461,3.4459,3.4452,3.4448,3.4443,3.4422,3.4407,3.4431,3.4405,3.4423,3.4424,3.4429,3.4429,3.4491,3.4427,3.4427,3.4427,3.4427,0,3.4564,3.4572,3.4541,3.4544,3.4553,3.4528,3.4537,3.4525,3.4513,3.4514,3.4489,3.4491,3.4463,3.4462,3.4446,3.4454,3.4452,3.4445,3.444,3.4447,3.4448,3.4445,3.4442,3.4429,3.4428,3.4428,3.4428,0,3.4615,3.4595,3.4599,3.4578,3.4573,3.458,3.4563,3.4566,3.4551,3.4553,3.4552,3.4529,3.4528,3.4507,3.45,3.4489,3.4504,3.4494,3.4508,3.4505,3.4524,3.4523,3.4587,3.4595,3.4526,3.4527,3.4528,0,3.4642,3.4648,3.4628,3.4627,3.4619,3.4618,3.4615,3.4591,3.4589,3.4576,3.4581,3.4578,3.4573,3.4572,3.4556,3.4551,3.4542,3.4565,3.4541,3.4548,3.4543,3.4543,3.4544,3.457,3.457,3.4571,3.4572,0,3.4693,3.4683,3.4679,3.4673,3.467,3.4664,3.4656,3.4658,3.4632,3.4631,3.4629,3.4626,3.462,3.4618,3.4611,3.4602,3.4583,3.458,3.4584,3.459,3.4598,3.4595,3.4522,3.4578,3.4577,3.4577,3.4576,3.4576,3.4733,3.4737,3.4724,3.4722,3.4714,3.4708,3.4711,3.4697,3.4695,3.4689,3.4675,3.4676,3.4665,3.4654,3.4647,3.4648,3.4637,3.4642,3.4643,3.4645,3.4649,3.4599,3.4647,3.4647,3.4646,3.4646,3.4646,0,3.4782,3.4773,3.4772,3.4762,3.4761,3.4744,3.4735,3.4735,3.4737,3.4728,3.4725,3.4724,3.4722,3.4706,3.4703,3.4707,3.4698,3.4707,3.4706,3.4705,3.4659,3.4657,3.4714,3.4714,3.4714,3.4714,3.4714,3.4714,3.4808,3.4815,3.4804,3.4808,3.4799,3.48,3.4797,3.4792,3.4785,3.4785,3.4784,3.4774,3.4763,3.4759,3.4757,3.4752,3.4752,3.4764,3.4757,3.4714,3.4708,3.4702,3.4699,3.4764,3.4764,3.4802,3.4802,3.4803]},{"header":{"parameterUnit":"m.s-1","parameterCategory":1,"la1":30.2991,"la2":30.254,"lo1":-89.0895,"lo2":-89.0444,"dy":0.0017,"dx":0.0017,"nx":28,"ny":28,"refTime":"2023-08-09T09:00:00:Z","depth":0,"parameterNumber":3,"parameterNumberName":"V-component_of_WINDS"},"data":[0,0,0,0,0,0,0,0,0,0,0,0,0,0,0,0,0,0,0,0,0,0,0,0,0,0,0,0,0,0,0,0,0,0,0,0,0,0,0,0,0,0,0,0,0,0,0,0,0,0,0,0,0,0,0,0,0,0,4.0134,4.0135,0,4.0281,4.0283,4.0285,4.0349,4.0348,4.0348,4.0348,4.0498,4.0502,4.0506,0,0,0,0,0,0,0,0,0,0,0,0,0,3.9907,3.9911,4.0134,4.0136,4.0137,4.0281,4.0283,4.0285,4.0349,4.0348,4.0348,4.0348,4.0497,4.0502,4.0507,0,0,0,0,0,0,0,0,0,0,0,0,0,4.0025,3.9912,4.0133,4.0186,4.0193,4.0281,4.0283,4.0286,4.0349,4.0348,4.0348,4.0348,4.0495,4.0501,4.0507,4.0553,0,0,4.0527,4.053,0,0,0,0,0,0,0,0,4.0018,4.0033,4.0177,4.0183,4.019,4.0296,4.0258,4.0375,4.0349,4.0289,4.0348,4.0347,4.0431,4.0443,4.0471,4.0561,4.0567,4.0527,4.0531,4.0534,4.0536,0,0,0,0,0,0,0,4.001,4.0027,4.0192,4.0179,4.0187,4.0203,4.0219,4.0281,4.036,4.0295,4.03,4.0316,4.0435,4.0465,4.0475,4.0569,4.0527,4.0533,4.0537,4.0539,4.0706,4.0706,0,0,0,0,0,0,3.9993,4.002,4.0187,4.0197,4.0102,4.0207,4.0226,4.0262,4.036,4.0374,4.0316,4.0319,4.0454,4.0468,4.0481,4.0542,4.0534,4.054,4.0543,4.0705,4.0706,4.0707,0,0,0,0,0,0,3.9988,4.0008,4.0182,4.011,4.0133,4.0212,4.0252,4.0266,4.0296,4.0376,4.0391,4.0333,4.0455,4.0472,4.0535,4.0548,4.0543,4.0548,4.0704,4.0705,4.0706,4.0665,0,0,0,0,0,0,3.9981,4.0005,4.0023,4.011,4.0137,4.0233,4.0253,4.0269,4.0307,4.0311,4.0395,4.0409,4.0456,4.0526,4.0542,4.0557,4.0553,4.0704,4.0705,4.0706,4.0666,4.0664,4.0663,0,0,0,0,0,3.9973,4.0005,4.0024,4.0044,4.0161,4.0234,4.025,4.0303,4.0307,4.0327,4.0379,4.0406,4.0544,4.0532,4.055,4.0568,4.0703,4.0704,4.0706,4.0666,4.0665,4.0663,0,0,0,0,0,0,3.9918,4.0018,4.0039,4.0101,4.0159,4.0245,4.027,4.0299,4.0357,4.0358,4.0421,4.044,4.0498,4.0539,4.0524,4.0618,4.0626,4.0631,4.0589,4.0589,4.0588,4.0577,4.0559,0,0,0,0,0,3.9913,3.9964,4.0048,4.0094,4.0122,4.0191,4.0225,4.0261,4.0323,4.0348,4.0405,4.0464,4.0521,4.0557,4.0614,4.0672,4.0692,4.0693,4.0692,4.0691,4.0694,4.073,4.0732,4.0711,4.0711,4.0711,0,0,3.9903,3.9964,3.9992,4.0085,4.0134,4.0186,4.0211,4.0265,4.0304,4.0356,4.042,4.0464,4.0534,4.0595,4.0625,4.0631,4.0705,4.0692,4.0691,4.0696,4.0732,4.0733,4.0735,4.0712,4.0712,4.0712,0,0,3.9912,3.9963,4.0007,4.0056,4.0131,4.0176,4.0187,4.0269,4.0301,4.0366,4.0407,4.0454,4.055,4.06,4.0637,4.0666,4.0694,4.0682,4.0677,4.0711,4.0712,4.0714,4.0726,4.0729,4.0686,4.0686,4.0686,0,3.9891,3.997,4.0026,4.0078,4.0118,4.0168,4.0215,4.0259,4.0348,4.0374,4.038,4.0503,4.0554,4.0628,4.0635,4.0664,4.0679,4.0673,4.0708,4.071,4.0712,4.0724,4.0728,4.0684,4.0684,4.0684,4.0685,0,3.9941,3.9995,4.0022,4.0108,4.0151,4.0199,4.0263,4.03,4.0332,4.0377,4.0444,4.0507,4.0578,4.0598,4.063,4.0678,4.0679,4.0695,4.0705,4.0712,4.0724,4.0729,4.0681,4.0682,4.0683,4.0683,0,0,3.9919,4.0035,4.0044,4.0084,4.017,4.0214,4.0265,4.0335,4.0366,4.0425,4.047,4.0551,4.0567,4.061,4.0648,4.0677,4.0698,4.069,4.0693,4.069,4.0756,4.0744,4.0748,4.0717,4.0718,4.0719,4.0751,0,3.994,4.0034,4.0087,4.0159,4.0211,4.026,4.0305,4.0362,4.0406,4.0457,4.0505,4.0562,4.0578,4.0605,4.0636,4.0689,4.0712,4.0687,4.076,4.0762,4.0742,4.0755,4.0742,4.0769,4.0756,4.0756,4.0757,0,3.9977,4.0037,4.0114,4.0196,4.022,4.0259,4.0328,4.0376,4.0443,4.0473,4.0521,4.0559,4.0616,4.062,4.07,4.0681,4.0715,4.0745,4.0747,4.0757,4.076,4.0765,4.0778,4.0783,4.0765,4.0764,4.0764,0,3.9955,4.0055,4.0114,4.0147,4.0243,4.027,4.0311,4.0378,4.0417,4.0477,4.0504,4.057,4.0606,4.0656,4.0712,4.071,4.0786,4.0795,4.0814,4.0812,4.0828,4.0826,4.0847,4.0847,4.0847,4.0847,4.0847,0,3.9974,4.0019,4.0106,4.0142,4.0196,4.0256,4.0307,4.0352,4.0411,4.0458,4.0504,4.0547,4.0617,4.0669,4.0713,4.0773,4.0788,4.0815,4.0826,4.0811,4.0808,4.0835,4.0835,4.0848,4.0848,4.0848,4.0848,0,3.9958,4.0017,4.0086,4.0172,4.0194,4.023,4.0304,4.0342,4.0388,4.0447,4.0464,4.0538,4.0601,4.0661,4.0746,4.0776,4.0837,4.085,4.0814,4.082,4.0836,4.0834,4.0876,4.0885,4.0877,4.0877,4.0877,0,3.9966,4.0003,4.0093,4.0128,4.0168,4.0224,4.0264,4.0325,4.0366,4.0446,4.0474,4.0541,4.0599,4.0698,4.0759,4.0825,4.0842,4.0852,4.0852,4.0836,4.0844,4.0841,4.0846,4.0851,4.085,4.085,4.085,0,3.9975,4.0003,4.006,4.0128,4.0175,4.0231,4.0288,4.0314,4.0386,4.043,4.0496,4.054,4.0627,4.0694,4.0767,4.081,4.0843,4.085,4.0858,4.0843,4.0821,4.0835,4.0812,4.0848,4.0849,4.0849,4.0849,4.0849,3.9973,4.0008,4.0078,4.014,4.019,4.0243,4.0283,4.0335,4.0391,4.0467,4.05,4.0567,4.0635,4.0736,4.0779,4.0833,4.084,4.0851,4.0855,4.0857,4.0855,4.0812,4.0846,4.0847,4.0847,4.0847,4.0847,0,3.9986,4.0033,4.0089,4.0169,4.0218,4.0244,4.031,4.0349,4.0408,4.0468,4.0524,4.06,4.0666,4.0732,4.0801,4.0832,4.0849,4.0848,4.0847,4.0857,4.0843,4.083,4.0834,4.0834,4.0834,4.0834,4.0834,4.0834,3.9998,4.006,4.0096,4.0183,4.0231,4.0297,4.0332,4.0382,4.0431,4.0514,4.0569,4.0612,4.0675,4.075,4.0811,4.0829,4.0853,4.0849,4.0871,4.0857,4.0858,4.0858,4.0846,4.0853,4.0853,4.0881,4.0881,4.0881]}]]